owner,sensor,date,latitude,longitude,vertical_datum,wind_speed,wind_to_direction,wind_speed_of_gust,qcFlag 
DISL,ioos:station:DISL:MBLA:1,2015-07-01T00:00:00Z,30.4367,-88.0117,14.2,5.39,175.4,-9999.0,'1111122,1111122,1111122' 
DISL,ioos:station:DISL:MBLA:1,2015-07-01T00:30:00Z,30.4367,-88.0117,14.2,4.02,159.3,-9999.0,'1111122,1111122,1111122' 
DISL,ioos:station:DISL:MBLA:1,2015-07-01T01:00:00Z,30.4367,-88.0117,14.2,3.82,154.6,-9999.0,'1111122,1111122,1111122' 
DISL,ioos:station:DISL:MBLA:1,2015-07-01T01:30:00Z,30.4367,-88.0117,14.2,5.35,163.4,-9999.0,'1111122,1111122,1111122' 
DISL,ioos:station:DISL:MBLA:1,2015-07-01T02:00:00Z,30.4367,-88.0117,14.2,6.1,167.5,-9999.0,'1111122,1111122,1111122' 
DISL,ioos:station:DISL:MBLA:1,2015-07-01T02:30:00Z,30.4367,-88.0117,14.2,7.6,172.7,-9999.0,'1111122,1111122,1111122' 
DISL,ioos:station:DISL:MBLA:1,2015-07-01T03:00:00Z,30.4367,-88.0117,14.2,8.04,191.1,-9999.0,'1111122,1111122,1111122' 
DISL,ioos:station:DISL:MBLA:1,2015-07-01T03:30:00Z,30.4367,-88.0117,14.2,8.62,206.9,-9999.0,'1111122,1111122,1111122' 
DISL,ioos:station:DISL:MBLA:1,2015-07-01T04:00:00Z,30.4367,-88.0117,14.2,8.81,223.4,-9999.0,'1111122,1111122,1111122' 
DISL,ioos:station:DISL:MBLA:1,2015-07-01T04:30:00Z,30.4367,-88.0117,14.2,6.35,233.9,-9999.0,'1111122,1111122,1111122' 
DISL,ioos:station:DISL:MBLA:1,2015-07-01T05:00:00Z,30.4367,-88.0117,14.2,5.77,274.2,-9999.0,'1111122,1111122,1111122' 
DISL,ioos:station:DISL:MBLA:1,2015-07-01T05:30:00Z,30.4367,-88.0117,14.2,6.45,310.8,-9999.0,'1111122,1111122,1111122' 
DISL,ioos:station:DISL:MBLA:1,2015-07-01T06:00:00Z,30.4367,-88.0117,14.2,5.82,306.1,-9999.0,'1111122,1111122,1111122' 
DISL,ioos:station:DISL:MBLA:1,2015-07-01T06:30:00Z,30.4367,-88.0117,14.2,5.48,272.6,-9999.0,'1111122,1111122,1111122' 
DISL,ioos:station:DISL:MBLA:1,2015-07-01T07:00:00Z,30.4367,-88.0117,14.2,5.67,241.0,-9999.0,'1111122,1111122,1111122' 
DISL,ioos:station:DISL:MBLA:1,2015-07-01T07:30:00Z,30.4367,-88.0117,14.2,5.98,258.6,-9999.0,'1111122,1111122,1111122' 
DISL,ioos:station:DISL:MBLA:1,2015-07-01T08:00:00Z,30.4367,-88.0117,14.2,5.63,291.8,-9999.0,'1111122,1111122,1111122' 
DISL,ioos:station:DISL:MBLA:1,2015-07-01T08:30:00Z,30.4367,-88.0117,14.2,3.62,280.4,-9999.0,'1111122,1111122,1111122' 
DISL,ioos:station:DISL:MBLA:1,2015-07-01T09:00:00Z,30.4367,-88.0117,14.2,1.36,260.1,-9999.0,'1111122,1111122,1111122' 
DISL,ioos:station:DISL:MBLA:1,2015-07-01T09:30:00Z,30.4367,-88.0117,14.2,0.72,175.0,-9999.0,'1111122,1111122,1111122' 
DISL,ioos:station:DISL:MBLA:1,2015-07-01T10:00:00Z,30.4367,-88.0117,14.2,0.44,8.86,-9999.0,'1111122,1111122,1111122' 
DISL,ioos:station:DISL:MBLA:1,2015-07-01T10:30:00Z,30.4367,-88.0117,14.2,3.15,335.1,-9999.0,'1111122,1111122,1111122' 
DISL,ioos:station:DISL:MBLA:1,2015-07-01T11:00:00Z,30.4367,-88.0117,14.2,4.31,297.1,-9999.0,'1111122,1111122,1111122' 
DISL,ioos:station:DISL:MBLA:1,2015-07-01T11:30:00Z,30.4367,-88.0117,14.2,4.4,287.6,-9999.0,'1111122,1111122,1111122' 
DISL,ioos:station:DISL:MBLA:1,2015-07-01T12:00:00Z,30.4367,-88.0117,14.2,4.35,288.5,-9999.0,'1111122,1111122,1111122' 
DISL,ioos:station:DISL:MBLA:1,2015-07-01T12:30:00Z,30.4367,-88.0117,14.2,3.53,280.6,-9999.0,'1111122,1111122,1111122' 
DISL,ioos:station:DISL:MBLA:1,2015-07-01T13:00:00Z,30.4367,-88.0117,14.2,3.27,287.5,-9999.0,'1111122,1111122,1111122' 
DISL,ioos:station:DISL:MBLA:1,2015-07-01T13:30:00Z,30.4367,-88.0117,14.2,3.23,268.8,-9999.0,'1111122,1111122,1111122' 
DISL,ioos:station:DISL:MBLA:1,2015-07-01T14:00:00Z,30.4367,-88.0117,14.2,2.81,270.6,-9999.0,'1111122,1111122,1111122' 
DISL,ioos:station:DISL:MBLA:1,2015-07-01T14:30:00Z,30.4367,-88.0117,14.2,0.74,204.2,-9999.0,'1111122,1111122,1111122' 
DISL,ioos:station:DISL:MBLA:1,2015-07-01T15:00:00Z,30.4367,-88.0117,14.2,1.83,288.4,-9999.0,'1111122,1111122,1111122' 
DISL,ioos:station:DISL:MBLA:1,2015-07-01T15:30:00Z,30.4367,-88.0117,14.2,0.55,284.5,-9999.0,'1111122,1111122,1111122' 
DISL,ioos:station:DISL:MBLA:1,2015-07-01T16:00:00Z,30.4367,-88.0117,14.2,1.5,154.2,-9999.0,'1111122,1111122,1111122' 
DISL,ioos:station:DISL:MBLA:1,2015-07-01T16:30:00Z,30.4367,-88.0117,14.2,3.04,183.5,-9999.0,'1111122,1111122,1111122' 
DISL,ioos:station:DISL:MBLA:1,2015-07-01T17:00:00Z,30.4367,-88.0117,14.2,6.57,194.4,-9999.0,'1111122,1111122,1111122' 
DISL,ioos:station:DISL:MBLA:1,2015-07-01T17:30:00Z,30.4367,-88.0117,14.2,7.45,195.1,-9999.0,'1111122,1111122,1111122' 
DISL,ioos:station:DISL:MBLA:1,2015-07-01T18:00:00Z,30.4367,-88.0117,14.2,6.85,203.8,-9999.0,'1111122,1111122,1111122' 
DISL,ioos:station:DISL:MBLA:1,2015-07-01T18:30:00Z,30.4367,-88.0117,14.2,6.94,197.6,-9999.0,'1111122,1111122,1111122' 
DISL,ioos:station:DISL:MBLA:1,2015-07-01T19:00:00Z,30.4367,-88.0117,14.2,7.57,196.3,-9999.0,'1111122,1111122,1111122' 
DISL,ioos:station:DISL:MBLA:1,2015-07-01T19:30:00Z,30.4367,-88.0117,14.2,6.92,195.7,-9999.0,'1111122,1111122,1111122' 
DISL,ioos:station:DISL:MBLA:1,2015-07-01T20:00:00Z,30.4367,-88.0117,14.2,7.43,202.7,-9999.0,'1111122,1111122,1111122' 
DISL,ioos:station:DISL:MBLA:1,2015-07-01T20:30:00Z,30.4367,-88.0117,14.2,8.28,208.5,-9999.0,'1111122,1111122,1111122' 
DISL,ioos:station:DISL:MBLA:1,2015-07-01T21:00:00Z,30.4367,-88.0117,14.2,8.85,204.4,-9999.0,'1111122,1111122,1111122' 
DISL,ioos:station:DISL:MBLA:1,2015-07-01T21:30:00Z,30.4367,-88.0117,14.2,10.4,210.6,-9999.0,'1111122,1111122,1111122' 
DISL,ioos:station:DISL:MBLA:1,2015-07-01T22:00:00Z,30.4367,-88.0117,14.2,11.65,217.5,-9999.0,'1111122,1111122,1111122' 
DISL,ioos:station:DISL:MBLA:1,2015-07-01T22:30:00Z,30.4367,-88.0117,14.2,14.54,265.6,-9999.0,'1111122,1111122,1111122' 
DISL,ioos:station:DISL:MBLA:1,2015-07-01T23:00:00Z,30.4367,-88.0117,14.2,7.8,272.8,-9999.0,'1111122,1111122,1111122' 
DISL,ioos:station:DISL:MBLA:1,2015-07-01T23:30:00Z,30.4367,-88.0117,14.2,6.5,277.0,-9999.0,'1111122,1111122,1111122' 
DISL,ioos:station:DISL:MBLA:1,2015-07-02T00:00:00Z,30.4367,-88.0117,14.2,5.86,289.8,-9999.0,'1111122,1111122,1111122' 
DISL,ioos:station:DISL:MBLA:1,2015-07-02T00:30:00Z,30.4367,-88.0117,14.2,7.5,289.8,-9999.0,'1111122,1111122,1111122' 
DISL,ioos:station:DISL:MBLA:1,2015-07-02T01:00:00Z,30.4367,-88.0117,14.2,7.23,297.8,-9999.0,'1111122,1111122,1111122' 
DISL,ioos:station:DISL:MBLA:1,2015-07-02T01:30:00Z,30.4367,-88.0117,14.2,5.07,276.4,-9999.0,'1111122,1111122,1111122' 
DISL,ioos:station:DISL:MBLA:1,2015-07-02T02:00:00Z,30.4367,-88.0117,14.2,5.71,284.8,-9999.0,'1111122,1111122,1111122' 
DISL,ioos:station:DISL:MBLA:1,2015-07-02T02:30:00Z,30.4367,-88.0117,14.2,4.91,277.1,-9999.0,'1111122,1111122,1111122' 
DISL,ioos:station:DISL:MBLA:1,2015-07-02T03:00:00Z,30.4367,-88.0117,14.2,4.85,274.3,-9999.0,'1111122,1111122,1111122' 
DISL,ioos:station:DISL:MBLA:1,2015-07-02T03:30:00Z,30.4367,-88.0117,14.2,4.77,246.0,-9999.0,'1111122,1111122,1111122' 
DISL,ioos:station:DISL:MBLA:1,2015-07-02T04:00:00Z,30.4367,-88.0117,14.2,3.49,245.8,-9999.0,'1111122,1111122,1111122' 
DISL,ioos:station:DISL:MBLA:1,2015-07-02T04:30:00Z,30.4367,-88.0117,14.2,3.57,227.2,-9999.0,'1111122,1111122,1111122' 
DISL,ioos:station:DISL:MBLA:1,2015-07-02T05:00:00Z,30.4367,-88.0117,14.2,2.9,219.3,-9999.0,'1111122,1111122,1111122' 
DISL,ioos:station:DISL:MBLA:1,2015-07-02T05:30:00Z,30.4367,-88.0117,14.2,4.32,221.1,-9999.0,'1111122,1111122,1111122' 
DISL,ioos:station:DISL:MBLA:1,2015-07-02T06:00:00Z,30.4367,-88.0117,14.2,5.66,229.7,-9999.0,'1111122,1111122,1111122' 
DISL,ioos:station:DISL:MBLA:1,2015-07-02T06:30:00Z,30.4367,-88.0117,14.2,5.77,228.3,-9999.0,'1111122,1111122,1111122' 
DISL,ioos:station:DISL:MBLA:1,2015-07-02T07:00:00Z,30.4367,-88.0117,14.2,5.93,230.7,-9999.0,'1111122,1111122,1111122' 
DISL,ioos:station:DISL:MBLA:1,2015-07-02T07:30:00Z,30.4367,-88.0117,14.2,4.94,235.3,-9999.0,'1111122,1111122,1111122' 
DISL,ioos:station:DISL:MBLA:1,2015-07-02T08:00:00Z,30.4367,-88.0117,14.2,5.19,230.4,-9999.0,'1111122,1111122,1111122' 
DISL,ioos:station:DISL:MBLA:1,2015-07-02T08:30:00Z,30.4367,-88.0117,14.2,4.78,225.4,-9999.0,'1111122,1111122,1111122' 
DISL,ioos:station:DISL:MBLA:1,2015-07-02T09:00:00Z,30.4367,-88.0117,14.2,5.81,225.8,-9999.0,'1111122,1111122,1111122' 
DISL,ioos:station:DISL:MBLA:1,2015-07-02T09:30:00Z,30.4367,-88.0117,14.2,6.22,224.0,-9999.0,'1111122,1111122,1111122' 
DISL,ioos:station:DISL:MBLA:1,2015-07-02T10:00:00Z,30.4367,-88.0117,14.2,6.14,222.5,-9999.0,'1111122,1111122,1111122' 
DISL,ioos:station:DISL:MBLA:1,2015-07-02T10:30:00Z,30.4367,-88.0117,14.2,7.5,218.7,-9999.0,'1111122,1111122,1111122' 
DISL,ioos:station:DISL:MBLA:1,2015-07-02T11:00:00Z,30.4367,-88.0117,14.2,4.76,219.1,-9999.0,'1111122,1111122,1111122' 
DISL,ioos:station:DISL:MBLA:1,2015-07-02T11:30:00Z,30.4367,-88.0117,14.2,6.56,227.3,-9999.0,'1111122,1111122,1111122' 
DISL,ioos:station:DISL:MBLA:1,2015-07-02T12:00:00Z,30.4367,-88.0117,14.2,6.1,246.8,-9999.0,'1111122,1111122,1111122' 
DISL,ioos:station:DISL:MBLA:1,2015-07-02T12:30:00Z,30.4367,-88.0117,14.2,8.49,235.0,-9999.0,'1111122,1111122,1111122' 
DISL,ioos:station:DISL:MBLA:1,2015-07-02T13:00:00Z,30.4367,-88.0117,14.2,7.64,230.2,-9999.0,'1111122,1111122,1111122' 
DISL,ioos:station:DISL:MBLA:1,2015-07-02T13:30:00Z,30.4367,-88.0117,14.2,8.1,230.3,-9999.0,'1111122,1111122,1111122' 
DISL,ioos:station:DISL:MBLA:1,2015-07-02T14:00:00Z,30.4367,-88.0117,14.2,7.21,230.9,-9999.0,'1111122,1111122,1111122' 
DISL,ioos:station:DISL:MBLA:1,2015-07-02T14:30:00Z,30.4367,-88.0117,14.2,7.05,247.9,-9999.0,'1111122,1111122,1111122' 
DISL,ioos:station:DISL:MBLA:1,2015-07-02T15:00:00Z,30.4367,-88.0117,14.2,5.64,238.5,-9999.0,'1111122,1111122,1111122' 
DISL,ioos:station:DISL:MBLA:1,2015-07-02T15:30:00Z,30.4367,-88.0117,14.2,6.73,228.2,-9999.0,'1111122,1111122,1111122' 
DISL,ioos:station:DISL:MBLA:1,2015-07-02T16:00:00Z,30.4367,-88.0117,14.2,6.0,228.7,-9999.0,'1111122,1111122,1111122' 
DISL,ioos:station:DISL:MBLA:1,2015-07-02T16:30:00Z,30.4367,-88.0117,14.2,5.5,220.4,-9999.0,'1111122,1111122,1111122' 
DISL,ioos:station:DISL:MBLA:1,2015-07-02T17:00:00Z,30.4367,-88.0117,14.2,6.58,238.2,-9999.0,'1111122,1111122,1111122' 
DISL,ioos:station:DISL:MBLA:1,2015-07-02T17:30:00Z,30.4367,-88.0117,14.2,5.3,242.0,-9999.0,'1111122,1111122,1111122' 
DISL,ioos:station:DISL:MBLA:1,2015-07-02T18:00:00Z,30.4367,-88.0117,14.2,6.08,237.1,-9999.0,'1111122,1111122,1111122' 
DISL,ioos:station:DISL:MBLA:1,2015-07-02T18:30:00Z,30.4367,-88.0117,14.2,5.91,240.1,-9999.0,'1111122,1111122,1111122' 
DISL,ioos:station:DISL:MBLA:1,2015-07-02T19:00:00Z,30.4367,-88.0117,14.2,5.7,225.9,-9999.0,'1111122,1111122,1111122' 
DISL,ioos:station:DISL:MBLA:1,2015-07-02T19:30:00Z,30.4367,-88.0117,14.2,6.12,226.2,-9999.0,'1111122,1111122,1111122' 
DISL,ioos:station:DISL:MBLA:1,2015-07-02T20:00:00Z,30.4367,-88.0117,14.2,7.3,229.5,-9999.0,'1111122,1111122,1111122' 
DISL,ioos:station:DISL:MBLA:1,2015-07-02T20:30:00Z,30.4367,-88.0117,14.2,9.06,234.8,-9999.0,'1111122,1111122,1111122' 
DISL,ioos:station:DISL:MBLA:1,2015-07-02T21:00:00Z,30.4367,-88.0117,14.2,8.7,232.4,-9999.0,'1111122,1111122,1111122' 
DISL,ioos:station:DISL:MBLA:1,2015-07-02T21:30:00Z,30.4367,-88.0117,14.2,9.1,215.8,-9999.0,'1111122,1111122,1111122' 
DISL,ioos:station:DISL:MBLA:1,2015-07-02T22:00:00Z,30.4367,-88.0117,14.2,9.07,216.6,-9999.0,'1111122,1111122,1111122' 
DISL,ioos:station:DISL:MBLA:1,2015-07-02T22:30:00Z,30.4367,-88.0117,14.2,8.84,219.7,-9999.0,'1111122,1111122,1111122' 
DISL,ioos:station:DISL:MBLA:1,2015-07-02T23:00:00Z,30.4367,-88.0117,14.2,8.21,233.6,-9999.0,'1111122,1111122,1111122' 
DISL,ioos:station:DISL:MBLA:1,2015-07-02T23:30:00Z,30.4367,-88.0117,14.2,8.24,220.7,-9999.0,'1111122,1111122,1111122' 
DISL,ioos:station:DISL:MBLA:1,2015-07-03T00:00:00Z,30.4367,-88.0117,14.2,8.5,219.6,-9999.0,'1111122,1111122,1111122' 
DISL,ioos:station:DISL:MBLA:1,2015-07-03T00:30:00Z,30.4367,-88.0117,14.2,8.08,224.1,-9999.0,'1111122,1111122,1111122' 
DISL,ioos:station:DISL:MBLA:1,2015-07-03T01:00:00Z,30.4367,-88.0117,14.2,7.83,219.5,-9999.0,'1111122,1111122,1111122' 
DISL,ioos:station:DISL:MBLA:1,2015-07-03T01:30:00Z,30.4367,-88.0117,14.2,7.52,217.0,-9999.0,'1111122,1111122,1111122' 
DISL,ioos:station:DISL:MBLA:1,2015-07-03T02:00:00Z,30.4367,-88.0117,14.2,7.92,215.4,-9999.0,'1111122,1111122,1111122' 
DISL,ioos:station:DISL:MBLA:1,2015-07-03T02:30:00Z,30.4367,-88.0117,14.2,8.13,216.2,-9999.0,'1111122,1111122,1111122' 
DISL,ioos:station:DISL:MBLA:1,2015-07-03T03:00:00Z,30.4367,-88.0117,14.2,7.6,212.4,-9999.0,'1111122,1111122,1111122' 
DISL,ioos:station:DISL:MBLA:1,2015-07-03T03:30:00Z,30.4367,-88.0117,14.2,7.71,212.4,-9999.0,'1111122,1111122,1111122' 
DISL,ioos:station:DISL:MBLA:1,2015-07-03T04:00:00Z,30.4367,-88.0117,14.2,7.74,213.9,-9999.0,'1111122,1111122,1111122' 
DISL,ioos:station:DISL:MBLA:1,2015-07-03T04:30:00Z,30.4367,-88.0117,14.2,8.44,213.1,-9999.0,'1111122,1111122,1111122' 
DISL,ioos:station:DISL:MBLA:1,2015-07-03T05:00:00Z,30.4367,-88.0117,14.2,8.8,220.1,-9999.0,'1111122,1111122,1111122' 
DISL,ioos:station:DISL:MBLA:1,2015-07-03T05:30:00Z,30.4367,-88.0117,14.2,8.98,217.8,-9999.0,'1111122,1111122,1111122' 
DISL,ioos:station:DISL:MBLA:1,2015-07-03T06:00:00Z,30.4367,-88.0117,14.2,8.05,217.3,-9999.0,'1111122,1111122,1111122' 
DISL,ioos:station:DISL:MBLA:1,2015-07-03T06:30:00Z,30.4367,-88.0117,14.2,7.34,228.5,-9999.0,'1111122,1111122,1111122' 
DISL,ioos:station:DISL:MBLA:1,2015-07-03T07:00:00Z,30.4367,-88.0117,14.2,7.31,228.5,-9999.0,'1111122,1111122,1111122' 
DISL,ioos:station:DISL:MBLA:1,2015-07-03T07:30:00Z,30.4367,-88.0117,14.2,7.52,229.6,-9999.0,'1111122,1111122,1111122' 
DISL,ioos:station:DISL:MBLA:1,2015-07-03T08:00:00Z,30.4367,-88.0117,14.2,7.27,229.6,-9999.0,'1111122,1111122,1111122' 
DISL,ioos:station:DISL:MBLA:1,2015-07-03T08:30:00Z,30.4367,-88.0117,14.2,6.84,228.6,-9999.0,'1111122,1111122,1111122' 
DISL,ioos:station:DISL:MBLA:1,2015-07-03T09:00:00Z,30.4367,-88.0117,14.2,6.65,228.8,-9999.0,'1111122,1111122,1111122' 
DISL,ioos:station:DISL:MBLA:1,2015-07-03T09:30:00Z,30.4367,-88.0117,14.2,6.51,227.3,-9999.0,'1111122,1111122,1111122' 
DISL,ioos:station:DISL:MBLA:1,2015-07-03T10:00:00Z,30.4367,-88.0117,14.2,6.3,226.5,-9999.0,'1111122,1111122,1111122' 
DISL,ioos:station:DISL:MBLA:1,2015-07-03T10:30:00Z,30.4367,-88.0117,14.2,6.78,233.2,-9999.0,'1111122,1111122,1111122' 
DISL,ioos:station:DISL:MBLA:1,2015-07-03T11:00:00Z,30.4367,-88.0117,14.2,6.45,231.1,-9999.0,'1111122,1111122,1111122' 
DISL,ioos:station:DISL:MBLA:1,2015-07-03T11:30:00Z,30.4367,-88.0117,14.2,7.2,233.2,-9999.0,'1111122,1111122,1111122' 
DISL,ioos:station:DISL:MBLA:1,2015-07-03T12:00:00Z,30.4367,-88.0117,14.2,5.61,249.0,-9999.0,'1111122,1111122,1111122' 
DISL,ioos:station:DISL:MBLA:1,2015-07-03T12:30:00Z,30.4367,-88.0117,14.2,5.72,250.2,-9999.0,'1111122,1111122,1111122' 
DISL,ioos:station:DISL:MBLA:1,2015-07-03T13:00:00Z,30.4367,-88.0117,14.2,5.31,243.4,-9999.0,'1111122,1111122,1111122' 
DISL,ioos:station:DISL:MBLA:1,2015-07-03T13:30:00Z,30.4367,-88.0117,14.2,5.21,227.3,-9999.0,'1111122,1111122,1111122' 
DISL,ioos:station:DISL:MBLA:1,2015-07-03T14:00:00Z,30.4367,-88.0117,14.2,5.02,223.3,-9999.0,'1111122,1111122,1111122' 
DISL,ioos:station:DISL:MBLA:1,2015-07-03T14:30:00Z,30.4367,-88.0117,14.2,5.03,226.3,-9999.0,'1111122,1111122,1111122' 
DISL,ioos:station:DISL:MBLA:1,2015-07-03T15:00:00Z,30.4367,-88.0117,14.2,6.33,217.6,-9999.0,'1111122,1111122,1111122' 
DISL,ioos:station:DISL:MBLA:1,2015-07-03T15:30:00Z,30.4367,-88.0117,14.2,6.83,211.2,-9999.0,'1111122,1111122,1111122' 
DISL,ioos:station:DISL:MBLA:1,2015-07-03T16:00:00Z,30.4367,-88.0117,14.2,7.02,215.3,-9999.0,'1111122,1111122,1111122' 
DISL,ioos:station:DISL:MBLA:1,2015-07-03T16:30:00Z,30.4367,-88.0117,14.2,6.73,205.4,-9999.0,'1111122,1111122,1111122' 
DISL,ioos:station:DISL:MBLA:1,2015-07-03T17:00:00Z,30.4367,-88.0117,14.2,6.59,203.5,-9999.0,'1111122,1111122,1111122' 
DISL,ioos:station:DISL:MBLA:1,2015-07-03T17:30:00Z,30.4367,-88.0117,14.2,6.91,203.6,-9999.0,'1111122,1111122,1111122' 
DISL,ioos:station:DISL:MBLA:1,2015-07-03T18:00:00Z,30.4367,-88.0117,14.2,6.78,203.2,-9999.0,'1111122,1111122,1111122' 
DISL,ioos:station:DISL:MBLA:1,2015-07-03T18:30:00Z,30.4367,-88.0117,14.2,6.97,204.9,-9999.0,'1111122,1111122,1111122' 
DISL,ioos:station:DISL:MBLA:1,2015-07-03T19:00:00Z,30.4367,-88.0117,14.2,7.75,202.7,-9999.0,'1111122,1111122,1111122' 
DISL,ioos:station:DISL:MBLA:1,2015-07-03T19:30:00Z,30.4367,-88.0117,14.2,7.77,197.2,-9999.0,'1111122,1111122,1111122' 
DISL,ioos:station:DISL:MBLA:1,2015-07-03T20:00:00Z,30.4367,-88.0117,14.2,8.16,202.9,-9999.0,'1111122,1111122,1111122' 
DISL,ioos:station:DISL:MBLA:1,2015-07-03T20:30:00Z,30.4367,-88.0117,14.2,8.68,202.3,-9999.0,'1111122,1111122,1111122' 
DISL,ioos:station:DISL:MBLA:1,2015-07-03T21:00:00Z,30.4367,-88.0117,14.2,8.37,210.5,-9999.0,'1111122,1111122,1111122' 
DISL,ioos:station:DISL:MBLA:1,2015-07-03T21:30:00Z,30.4367,-88.0117,14.2,7.7,205.4,-9999.0,'1111122,1111122,1111122' 
DISL,ioos:station:DISL:MBLA:1,2015-07-03T22:00:00Z,30.4367,-88.0117,14.2,7.37,196.3,-9999.0,'1111122,1111122,1111122' 
DISL,ioos:station:DISL:MBLA:1,2015-07-03T22:30:00Z,30.4367,-88.0117,14.2,7.25,192.1,-9999.0,'1111122,1111122,1111122' 
DISL,ioos:station:DISL:MBLA:1,2015-07-03T23:00:00Z,30.4367,-88.0117,14.2,7.56,203.1,-9999.0,'1111122,1111122,1111122' 
DISL,ioos:station:DISL:MBLA:1,2015-07-03T23:30:00Z,30.4367,-88.0117,14.2,7.12,198.4,-9999.0,'1111122,1111122,1111122' 
DISL,ioos:station:DISL:MBLA:1,2015-07-04T00:00:00Z,30.4367,-88.0117,14.2,7.56,200.2,-9999.0,'1111122,1111122,1111122' 
DISL,ioos:station:DISL:MBLA:1,2015-07-04T00:30:00Z,30.4367,-88.0117,14.2,7.8,201.3,-9999.0,'1111122,1111122,1111122' 
DISL,ioos:station:DISL:MBLA:1,2015-07-04T01:00:00Z,30.4367,-88.0117,14.2,8.95,200.8,-9999.0,'1111122,1111122,1111122' 
DISL,ioos:station:DISL:MBLA:1,2015-07-04T01:30:00Z,30.4367,-88.0117,14.2,8.83,200.6,-9999.0,'1111122,1111122,1111122' 
DISL,ioos:station:DISL:MBLA:1,2015-07-04T02:00:00Z,30.4367,-88.0117,14.2,8.62,199.1,-9999.0,'1111122,1111122,1111122' 
DISL,ioos:station:DISL:MBLA:1,2015-07-04T02:30:00Z,30.4367,-88.0117,14.2,8.42,200.1,-9999.0,'1111122,1111122,1111122' 
DISL,ioos:station:DISL:MBLA:1,2015-07-04T03:00:00Z,30.4367,-88.0117,14.2,8.22,203.3,-9999.0,'1111122,1111122,1111122' 
DISL,ioos:station:DISL:MBLA:1,2015-07-04T03:30:00Z,30.4367,-88.0117,14.2,8.54,205.6,-9999.0,'1111122,1111122,1111122' 
DISL,ioos:station:DISL:MBLA:1,2015-07-04T04:00:00Z,30.4367,-88.0117,14.2,7.87,202.4,-9999.0,'1111122,1111122,1111122' 
DISL,ioos:station:DISL:MBLA:1,2015-07-04T04:30:00Z,30.4367,-88.0117,14.2,7.98,201.1,-9999.0,'1111122,1111122,1111122' 
DISL,ioos:station:DISL:MBLA:1,2015-07-04T05:00:00Z,30.4367,-88.0117,14.2,7.71,199.2,-9999.0,'1111122,1111122,1111122' 
DISL,ioos:station:DISL:MBLA:1,2015-07-04T05:30:00Z,30.4367,-88.0117,14.2,8.3,202.8,-9999.0,'1111122,1111122,1111122' 
DISL,ioos:station:DISL:MBLA:1,2015-07-04T06:00:00Z,30.4367,-88.0117,14.2,8.23,200.1,-9999.0,'1111122,1111122,1111122' 
DISL,ioos:station:DISL:MBLA:1,2015-07-04T06:30:00Z,30.4367,-88.0117,14.2,7.95,217.8,-9999.0,'1111122,1111122,1111122' 
DISL,ioos:station:DISL:MBLA:1,2015-07-04T07:00:00Z,30.4367,-88.0117,14.2,7.99,215.9,-9999.0,'1111122,1111122,1111122' 
DISL,ioos:station:DISL:MBLA:1,2015-07-04T07:30:00Z,30.4367,-88.0117,14.2,8.38,212.1,-9999.0,'1111122,1111122,1111122' 
DISL,ioos:station:DISL:MBLA:1,2015-07-04T08:00:00Z,30.4367,-88.0117,14.2,7.78,220.6,-9999.0,'1111122,1111122,1111122' 
DISL,ioos:station:DISL:MBLA:1,2015-07-04T08:30:00Z,30.4367,-88.0117,14.2,8.84,223.2,-9999.0,'1111122,1111122,1111122' 
DISL,ioos:station:DISL:MBLA:1,2015-07-04T09:00:00Z,30.4367,-88.0117,14.2,8.75,220.1,-9999.0,'1111122,1111122,1111122' 
DISL,ioos:station:DISL:MBLA:1,2015-07-04T09:30:00Z,30.4367,-88.0117,14.2,9.53,231.0,-9999.0,'1111122,1111122,1111122' 
DISL,ioos:station:DISL:MBLA:1,2015-07-04T10:00:00Z,30.4367,-88.0117,14.2,7.57,234.2,-9999.0,'1111122,1111122,1111122' 
DISL,ioos:station:DISL:MBLA:1,2015-07-04T10:30:00Z,30.4367,-88.0117,14.2,6.7,236.6,-9999.0,'1111122,1111122,1111122' 
DISL,ioos:station:DISL:MBLA:1,2015-07-04T11:00:00Z,30.4367,-88.0117,14.2,6.71,233.1,-9999.0,'1111122,1111122,1111122' 
DISL,ioos:station:DISL:MBLA:1,2015-07-04T11:30:00Z,30.4367,-88.0117,14.2,7.22,239.4,-9999.0,'1111122,1111122,1111122' 
DISL,ioos:station:DISL:MBLA:1,2015-07-04T12:00:00Z,30.4367,-88.0117,14.2,6.22,241.3,-9999.0,'1111122,1111122,1111122' 
DISL,ioos:station:DISL:MBLA:1,2015-07-04T12:30:00Z,30.4367,-88.0117,14.2,5.67,228.8,-9999.0,'1111122,1111122,1111122' 
DISL,ioos:station:DISL:MBLA:1,2015-07-04T13:00:00Z,30.4367,-88.0117,14.2,5.24,228.9,-9999.0,'1111122,1111122,1111122' 
DISL,ioos:station:DISL:MBLA:1,2015-07-04T13:30:00Z,30.4367,-88.0117,14.2,5.53,231.4,-9999.0,'1111122,1111122,1111122' 
DISL,ioos:station:DISL:MBLA:1,2015-07-04T14:00:00Z,30.4367,-88.0117,14.2,6.67,242.0,-9999.0,'1111122,1111122,1111122' 
DISL,ioos:station:DISL:MBLA:1,2015-07-04T14:30:00Z,30.4367,-88.0117,14.2,6.84,237.1,-9999.0,'1111122,1111122,1111122' 
DISL,ioos:station:DISL:MBLA:1,2015-07-04T15:00:00Z,30.4367,-88.0117,14.2,7.25,236.4,-9999.0,'1111122,1111122,1111122' 
DISL,ioos:station:DISL:MBLA:1,2015-07-04T15:30:00Z,30.4367,-88.0117,14.2,7.37,224.7,-9999.0,'1111122,1111122,1111122' 
DISL,ioos:station:DISL:MBLA:1,2015-07-04T16:00:00Z,30.4367,-88.0117,14.2,7.18,224.8,-9999.0,'1111122,1111122,1111122' 
DISL,ioos:station:DISL:MBLA:1,2015-07-04T16:30:00Z,30.4367,-88.0117,14.2,7.39,211.4,-9999.0,'1111122,1111122,1111122' 
DISL,ioos:station:DISL:MBLA:1,2015-07-04T17:00:00Z,30.4367,-88.0117,14.2,6.86,211.5,-9999.0,'1111122,1111122,1111122' 
DISL,ioos:station:DISL:MBLA:1,2015-07-04T17:30:00Z,30.4367,-88.0117,14.2,7.89,208.4,-9999.0,'1111122,1111122,1111122' 
DISL,ioos:station:DISL:MBLA:1,2015-07-04T18:00:00Z,30.4367,-88.0117,14.2,8.2,206.2,-9999.0,'1111122,1111122,1111122' 
DISL,ioos:station:DISL:MBLA:1,2015-07-04T18:30:00Z,30.4367,-88.0117,14.2,7.7,197.6,-9999.0,'1111122,1111122,1111122' 
DISL,ioos:station:DISL:MBLA:1,2015-07-04T19:00:00Z,30.4367,-88.0117,14.2,7.34,207.8,-9999.0,'1111122,1111122,1111122' 
DISL,ioos:station:DISL:MBLA:1,2015-07-04T19:30:00Z,30.4367,-88.0117,14.2,7.94,200.2,-9999.0,'1111122,1111122,1111122' 
DISL,ioos:station:DISL:MBLA:1,2015-07-04T20:00:00Z,30.4367,-88.0117,14.2,8.4,204.9,-9999.0,'1111122,1111122,1111122' 
DISL,ioos:station:DISL:MBLA:1,2015-07-04T20:30:00Z,30.4367,-88.0117,14.2,8.08,202.5,-9999.0,'1111122,1111122,1111122' 
DISL,ioos:station:DISL:MBLA:1,2015-07-04T21:00:00Z,30.4367,-88.0117,14.2,8.74,212.8,-9999.0,'1111122,1111122,1111122' 
DISL,ioos:station:DISL:MBLA:1,2015-07-04T21:30:00Z,30.4367,-88.0117,14.2,8.42,212.1,-9999.0,'1111122,1111122,1111122' 
DISL,ioos:station:DISL:MBLA:1,2015-07-04T22:00:00Z,30.4367,-88.0117,14.2,7.76,218.7,-9999.0,'1111122,1111122,1111122' 
DISL,ioos:station:DISL:MBLA:1,2015-07-04T22:30:00Z,30.4367,-88.0117,14.2,6.52,212.0,-9999.0,'1111122,1111122,1111122' 
DISL,ioos:station:DISL:MBLA:1,2015-07-04T23:00:00Z,30.4367,-88.0117,14.2,6.13,224.9,-9999.0,'1111122,1111122,1111122' 
DISL,ioos:station:DISL:MBLA:1,2015-07-04T23:30:00Z,30.4367,-88.0117,14.2,9.23,338.8,-9999.0,'1111122,1111122,1111122' 
DISL,ioos:station:DISL:MBLA:1,2015-07-05T00:00:00Z,30.4367,-88.0117,14.2,13.09,295.7,-9999.0,'1111122,1111122,1111122' 
DISL,ioos:station:DISL:MBLA:1,2015-07-05T00:30:00Z,30.4367,-88.0117,14.2,4.02,11.01,-9999.0,'1111122,1111122,1111122' 
DISL,ioos:station:DISL:MBLA:1,2015-07-05T01:00:00Z,30.4367,-88.0117,14.2,7.37,304.6,-9999.0,'1111122,1111122,1111122' 
DISL,ioos:station:DISL:MBLA:1,2015-07-05T01:30:00Z,30.4367,-88.0117,14.2,2.41,338.2,-9999.0,'1111122,1111122,1111122' 
DISL,ioos:station:DISL:MBLA:1,2015-07-05T02:00:00Z,30.4367,-88.0117,14.2,1.4,69.21,-9999.0,'1111122,1111122,1111122' 
DISL,ioos:station:DISL:MBLA:1,2015-07-05T02:30:00Z,30.4367,-88.0117,14.2,2.66,138.3,-9999.0,'1111122,1111122,1111122' 
DISL,ioos:station:DISL:MBLA:1,2015-07-05T03:00:00Z,30.4367,-88.0117,14.2,4.04,121.4,-9999.0,'1111122,1111122,1111122' 
DISL,ioos:station:DISL:MBLA:1,2015-07-05T03:30:00Z,30.4367,-88.0117,14.2,3.34,148.3,-9999.0,'1111122,1111122,1111122' 
DISL,ioos:station:DISL:MBLA:1,2015-07-05T04:00:00Z,30.4367,-88.0117,14.2,4.05,146.1,-9999.0,'1111122,1111122,1111122' 